Location: Bruch
(44.2051°N, 0.4120°E)
Time: 12:39:11
(UTC+00:00)

NOAA 6 - Pass Details

Date: 12 April 2021
Orbit: 772 x 787 km, 98.7° (Epoch: 05 May)

Event Time Altitude Azimuth Distance (km) Brightness Sun altitude
Rises 04:32:16 0° 36° (NE) 3,257 8.3 -9.0°
Reaches altitude 10° 04:36:44 10° 73° (ENE) 2,324 8.2 -8.2°
Maximum altitude 04:38:00 11° 87° (E) 2,263 7.8 -8.0°
Drops below altitude 10° 04:39:16 10° 102° (ESE) 2,321 7.5 -7.8°
Sets 04:43:41 0° 138° (SE) 3,244 7.6 -7.1°
